| time (UTC) | temp F | wind direction | speed MPH | gust MPH | rain 1hr in | rain 24hr in | rain mn in | humidity % | barometer mb |
| 20260507150034 | 66 | 142 | 1.0 | 7.0 | 0.00 | 0.00 | 0.00 | 48 | 1013.7 |
| 20260507144537 | 66 | 51 | 1.0 | 5.0 | 0.00 | 0.00 | 0.00 | 51 | 1013.9 |
| 20260507143037 | 66 | 65 | 0.0 | 4.0 | 0.00 | 0.00 | 0.00 | 50 | 1014.0 |
| 20260507141537 | 66 | 25 | 2.0 | 6.0 | 0.00 | 0.00 | 0.00 | 54 | 1014.1 |
| 20260507140038 | 66 | 0 | 2.0 | 5.0 | 0.00 | 0.00 | 0.00 | 52 | 1014.3 |
| 20260507134539 | 65 | 347 | 2.0 | 6.0 | 0.00 | 0.00 | 0.00 | 54 | 1014.5 |
| 20260507133050 | 65 | 33 | 1.0 | 7.0 | 0.00 | 0.00 | 0.00 | 57 | 1014.6 |
| 20260507131545 | 65 | 60 | 1.0 | 6.0 | 0.00 | 0.00 | 0.00 | 59 | 1014.6 |
| 20260507130045 | 65 | 80 | 1.0 | 8.0 | 0.00 | 0.00 | 0.00 | 57 | 1014.7 |
| 20260507124534 | 64 | 237 | 0.0 | 4.0 | 0.00 | 0.00 | 0.00 | 59 | 1014.9 |
| 20260507123036 | 64 | 310 | 2.0 | 7.0 | 0.00 | 0.00 | 0.00 | 58 | 1015.0 |
| 20260507121535 | 64 | 143 | 2.0 | 7.0 | 0.00 | 0.00 | 0.00 | 56 | 1015.0 |
| 20260507120046 | 64 | 42 | 1.0 | 5.0 | 0.00 | 0.00 | 0.00 | 59 | 1015.1 |
| 20260507114601 | 64 | 78 | 1.0 | 4.0 | 0.00 | 0.00 | 0.00 | 58 | 1015.1 |
| 20260507113036 | 63 | 49 | 2.0 | 5.0 | 0.00 | 0.00 | 0.00 | 60 | 1014.9 |
| 20260507111536 | 61 | 0 | 1.0 | 5.0 | 0.00 | 0.00 | 0.00 | 63 | 1015.0 |
| 20260507110036 | 60 | 0 | 0.0 | 3.0 | 0.00 | 0.00 | 0.00 | 63 | 1015.0 |
| 20260507104537 | 61 | 0 | 1.0 | 5.0 | 0.00 | 0.00 | 0.00 | 64 | 1014.9 |
| 20260507103035 | 61 | 273 | 1.0 | 4.0 | 0.00 | 0.00 | 0.00 | 64 | 1015.0 |
| 20260507101542 | 61 | 358 | 2.0 | 7.0 | 0.00 | 0.00 | 0.00 | 61 | 1015.2 |
| 20260507100036 | 62 | 339 | 0.0 | 4.0 | 0.00 | 0.00 | 0.00 | 62 | 1015.2 |
| 20260507094537 | 61 | 0 | 1.0 | 3.0 | 0.00 | 0.03 | 0.00 | 62 | 1015.3 |
| 20260507093038 | 60 | 318 | 2.0 | 6.0 | 0.00 | 0.03 | 0.00 | 66 | 1015.4 |
| 20260507091542 | 60 | 30 | 1.0 | 4.0 | 0.00 | 0.03 | 0.00 | 67 | 1015.1 |
| 20260507090040 | 59 | 331 | 1.0 | 5.0 | 0.00 | 0.03 | 0.00 | 67 | 1015.0 |
| 20260507084539 | 59 | 353 | 1.0 | 4.0 | 0.00 | 0.03 | 0.00 | 69 | 1015.0 |
| 20260507083035 | 57 | 66 | 0.0 | 4.0 | 0.00 | 0.03 | 0.00 | 70 | 1014.9 |
| 20260507081538 | 57 | 0 | 1.0 | 3.0 | 0.00 | 0.03 | 0.00 | 77 | 1014.9 |
| 20260507080036 | 56 | 61 | 0.0 | 3.0 | 0.00 | 0.03 | 0.00 | 81 | 1014.9 |
| 20260507074538 | 55 | 0 | 1.0 | 3.0 | 0.00 | 0.03 | 0.00 | 84 | 1014.7 |
| 20260507073036 | 54 | 58 | 0.0 | 3.0 | 0.00 | 0.03 | 0.00 | 89 | 1014.8 |
| 20260507071535 | 53 | 6 | 0.0 | 2.0 | 0.00 | 0.03 | 0.00 | 90 | 1014.8 |
| 20260507070035 | 52 | 66 | 0.0 | 2.0 | 0.00 | 0.03 | 0.00 | 93 | 1014.8 |
| 20260507064534 | 50 | 1 | 0.0 | 1.0 | 0.00 | 0.03 | 0.00 | 96 | 1014.8 |
| 20260507063035 | 49 | 49 | 0.0 | 1.0 | 0.00 | 0.03 | 0.00 | 98 | 1014.8 |
| 20260507061537 | 48 | 0 | 0.0 | 1.0 | 0.00 | 0.03 | 0.00 | 98 | 1014.6 |
| 20260507060036 | 47 | 0 | 0.0 | 1.0 | 0.00 | 0.03 | 0.00 | 98 | 1014.5 |
| 20260507054538 | 47 | 0 | 0.0 | 0.0 | 0.00 | 0.03 | 0.00 | 98 | 1014.5 |
| 20260507053035 | 46 | 0 | 0.0 | 0.0 | 0.00 | 0.03 | 0.00 | 99 | 1014.2 |
| 20260507051537 | 46 | 0 | 0.0 | 0.0 | 0.00 | 0.03 | 0.00 | 98 | 1014.1 |
| 20260507050035 | 46 | 0 | 0.0 | 0.0 | 0.00 | 0.03 | 0.00 | 98 | 1013.9 |
| 20260507044536 | 46 | 0 | 0.0 | 1.0 | 0.00 | 0.03 | 0.00 | 98 | 1014.0 |
| 20260507043035 | 46 | 0 | 0.0 | 1.0 | 0.00 | 0.03 | 0.00 | 98 | 1013.9 |
| 20260507041536 | 46 | 0 | 0.0 | 0.0 | 0.00 | 0.03 | 0.00 | 98 | 1013.9 |
| 20260507040036 | 46 | 0 | 0.0 | 0.0 | 0.00 | 0.03 | 0.00 | 98 | 1013.9 |
| 20260507034538 | 46 | 0 | 0.0 | 0.0 | 0.00 | 0.03 | 0.00 | 98 | 1013.9 |
| 20260507033035 | 46 | 0 | 0.0 | 0.0 | 0.00 | 0.03 | 0.00 | 98 | 1013.8 |
| 20260507031537 | 46 | 0 | 0.0 | 0.0 | 0.00 | 0.03 | 0.00 | 98 | 1013.8 |
| 20260507030036 | 46 | 0 | 0.0 | 0.0 | 0.00 | 0.03 | 0.00 | 98 | 1013.8 |
| 20260507024535 | 46 | 0 | 0.0 | 0.0 | 0.00 | 0.03 | 0.00 | 98 | 1013.7 |
| 20260507023045 | 47 | 0 | 0.0 | 0.0 | 0.00 | 0.03 | 0.00 | 98 | 1013.6 |
| 20260507021535 | 47 | 0 | 0.0 | 0.0 | 0.00 | 0.03 | 0.00 | 98 | 1013.5 |
| 20260507020052 | 47 | 0 | 0.0 | 0.0 | 0.00 | 0.03 | 0.00 | 98 | 1013.5 |
| 20260507014541 | 47 | 0 | 0.0 | 0.0 | 0.00 | 0.03 | 0.00 | 98 | 1013.5 |
| 20260507013047 | 47 | 0 | 0.0 | 0.0 | 0.00 | 0.03 | 0.00 | 98 | 1013.5 |
| 20260507011536 | 47 | 0 | 0.0 | 0.0 | 0.00 | 0.03 | 0.00 | 98 | 1013.5 |
| 20260507010036 | 46 | 0 | 0.0 | 0.0 | 0.00 | 0.03 | 0.00 | 98 | 1013.5 |
| 20260507004542 | 47 | 0 | 0.0 | 0.0 | 0.00 | 0.03 | 0.00 | 97 | 1013.4 |
| 20260507003042 | 47 | 0 | 0.0 | 0.0 | 0.00 | 0.03 | 0.00 | 97 | 1013.5 |
| 20260507001543 | 47 | 0 | 0.0 | 0.0 | 0.00 | 0.03 | 0.00 | 97 | 1013.5 |
| 20260507000036 | 48 | 0 | 0.0 | 1.0 | 0.00 | 0.03 | 0.00 | 98 | 1013.5 |
| 20260506234538 | 48 | 0 | 0.0 | 0.0 | 0.00 | 0.03 | 0.00 | 98 | 1013.4 |
| 20260506233036 | 47 | 0 | 0.0 | 0.0 | 0.00 | 0.03 | 0.00 | 98 | 1013.4 |
| 20260506231536 | 48 | 0 | 0.0 | 0.0 | 0.00 | 0.03 | 0.00 | 98 | 1013.4 |
| 20260506230045 | 47 | 0 | 0.0 | 0.0 | 0.00 | 0.03 | 0.00 | 98 | 1013.3 |
| 20260506224535 | 47 | 0 | 0.0 | 1.0 | 0.00 | 0.03 | 0.00 | 98 | 1013.3 |
| 20260506223041 | 45 | 0 | 0.0 | 0.0 | 0.00 | 0.03 | 0.00 | 98 | 1013.3 |
| 20260506221534 | 45 | 0 | 0.0 | 0.0 | 0.00 | 0.03 | 0.00 | 97 | 1013.3 |
| 20260506220041 | 44 | 0 | 0.0 | 0.0 | 0.00 | 0.03 | 0.00 | 97 | 1013.1 |
| 20260506214541 | 44 | 0 | 0.0 | 0.0 | 0.00 | 0.03 | 0.03 | 96 | 1013.2 |
| 20260506213041 | 44 | 0 | 0.0 | 0.0 | 0.00 | 0.03 | 0.03 | 95 | 1013.1 |
| 20260506211535 | 44 | 0 | 0.0 | 0.0 | 0.00 | 0.03 | 0.03 | 95 | 1013.1 |
| 20260506210042 | 45 | 0 | 0.0 | 0.0 | 0.00 | 0.03 | 0.03 | 95 | 1013.0 |
| 20260506204538 | 46 | 0 | 0.0 | 0.0 | 0.00 | 0.03 | 0.03 | 95 | 1013.1 |
| 20260506203036 | 46 | 0 | 0.0 | 0.0 | 0.00 | 0.03 | 0.03 | 94 | 1012.9 |
| 20260506201536 | 47 | 0 | 0.0 | 0.0 | 0.00 | 0.03 | 0.03 | 93 | 1012.7 |
| 20260506200035 | 48 | 0 | 0.0 | 0.0 | 0.00 | 0.03 | 0.03 | 91 | 1012.5 |
| 20260506194536 | 49 | 0 | 0.0 | 0.0 | 0.00 | 0.03 | 0.03 | 91 | 1012.5 |
| 20260506193037 | 50 | 0 | 0.0 | 0.0 | 0.00 | 0.03 | 0.03 | 89 | 1012.3 |
| 20260506191539 | 51 | 0 | 0.0 | 0.0 | 0.00 | 0.03 | 0.03 | 86 | 1012.0 |
| 20260506190035 | 53 | 0 | 0.0 | 0.0 | 0.00 | 0.03 | 0.03 | 82 | 1011.9 |
| 20260506184546 | 54 | 0 | 0.0 | 1.0 | 0.00 | 0.03 | 0.03 | 81 | 1011.8 |
| 20260506183050 | 54 | 0 | 0.0 | 1.0 | 0.00 | 0.03 | 0.03 | 79 | 1011.6 |
| 20260506181600 | 54 | 22 | 0.0 | 3.0 | 0.00 | 0.03 | 0.03 | 79 | 1011.3 |
| 20260506180037 | 55 | 20 | 0.0 | 3.0 | 0.00 | 0.03 | 0.03 | 79 | 1011.2 |
| 20260506174535 | 55 | 0 | 1.0 | 5.0 | 0.00 | 0.09 | 0.03 | 77 | 1011.1 |
| 20260506173053 | 55 | 27 | 2.0 | 7.0 | 0.00 | 0.09 | 0.03 | 76 | 1011.0 |
| 20260506171532 | 56 | 257 | 2.0 | 7.0 | 0.00 | 0.09 | 0.03 | 78 | 1010.8 |
| 20260506170040 | 56 | 53 | 3.0 | 8.0 | 0.00 | 0.09 | 0.03 | 77 | 1010.7 |
| 20260506164538 | 57 | 315 | 2.0 | 7.0 | 0.00 | 0.09 | 0.03 | 76 | 1010.6 |
| 20260506163038 | 57 | 32 | 3.0 | 11.0 | 0.00 | 0.09 | 0.03 | 75 | 1010.6 |
| 20260506161535 | 57 | 49 | 3.0 | 9.0 | 0.00 | 0.09 | 0.03 | 77 | 1010.7 |
| 20260506160044 | 57 | 294 | 1.0 | 7.0 | 0.00 | 0.09 | 0.03 | 77 | 1010.7 |
| 20260506154538 | 57 | 34 | 2.0 | 6.0 | 0.00 | 0.09 | 0.03 | 80 | 1010.7 |
| 20260506153050 | 56 | 56 | 1.0 | 6.0 | 0.00 | 0.09 | 0.03 | 82 | 1010.6 |
| 20260506151541 | 56 | 278 | 2.0 | 5.0 | 0.00 | 0.09 | 0.03 | 83 | 1010.6 |